| time (UTC) | temp F | wind direction | speed MPH | gust MPH | rain 1hr in | rain 24hr in | rain mn in | humidity % | barometer mb |
| 20260508190041 | 65 | 257 | 8.0 | 18.0 | 0.00 | 0.00 | 0.00 | 25 | 1007.7 |
| 20260508184543 | 65 | 247 | 3.0 | 10.0 | 0.00 | 0.00 | 0.00 | 26 | 1008.0 |
| 20260508183044 | 64 | 237 | 5.0 | 12.0 | 0.00 | 0.00 | 0.00 | 26 | 1008.1 |
| 20260508181602 | 64 | 295 | 6.0 | 12.0 | 0.00 | 0.00 | 0.00 | 25 | 1008.2 |
| 20260508180046 | 64 | 177 | 3.0 | 10.0 | 0.00 | 0.00 | 0.00 | 26 | 1008.4 |
| 20260508174548 | 64 | 266 | 6.0 | 11.0 | 0.00 | 0.00 | 0.00 | 27 | 1008.8 |
| 20260508173037 | 63 | 226 | 6.0 | 15.0 | 0.00 | 0.00 | 0.00 | 27 | 1009.0 |
| 20260508171536 | 62 | 295 | 4.0 | 7.0 | 0.00 | 0.00 | 0.00 | 26 | 1009.2 |
| 20260508170043 | 62 | 245 | 2.0 | 8.0 | 0.00 | 0.00 | 0.00 | 26 | 1009.4 |
| 20260508164541 | 62 | 257 | 6.0 | 12.0 | 0.00 | 0.00 | 0.00 | 28 | 1009.6 |
| 20260508163038 | 61 | 248 | 2.0 | 7.0 | 0.00 | 0.00 | 0.00 | 27 | 1009.8 |
| 20260508161537 | 61 | 164 | 3.0 | 11.0 | 0.00 | 0.00 | 0.00 | 31 | 1010.1 |
| 20260508160036 | 60 | 204 | 4.0 | 9.0 | 0.00 | 0.00 | 0.00 | 31 | 1010.3 |
| 20260508154541 | 60 | 244 | 3.0 | 7.0 | 0.00 | 0.00 | 0.00 | 32 | 1010.4 |
| 20260508153043 | 59 | 181 | 3.0 | 8.0 | 0.00 | 0.00 | 0.00 | 38 | 1010.5 |
| 20260508151539 | 59 | 194 | 1.0 | 7.0 | 0.00 | 0.00 | 0.00 | 40 | 1010.6 |
| 20260508150039 | 58 | 211 | 3.0 | 8.0 | 0.00 | 0.00 | 0.00 | 41 | 1010.8 |
| 20260508144537 | 56 | 209 | 4.0 | 8.0 | 0.00 | 0.00 | 0.00 | 45 | 1010.5 |
| 20260508143036 | 55 | 227 | 3.0 | 9.0 | 0.00 | 0.00 | 0.00 | 51 | 1010.7 |
| 20260508141553 | 55 | 209 | 3.0 | 7.0 | 0.00 | 0.00 | 0.00 | 54 | 1010.7 |
| 20260508140041 | 53 | 220 | 3.0 | 7.0 | 0.00 | 0.00 | 0.00 | 57 | 1010.7 |
| 20260508134554 | 52 | 206 | 3.0 | 8.0 | 0.00 | 0.00 | 0.00 | 61 | 1010.9 |
| 20260508133038 | 51 | 243 | 2.0 | 5.0 | 0.00 | 0.00 | 0.00 | 67 | 1010.8 |
| 20260508131537 | 49 | 214 | 1.0 | 4.0 | 0.00 | 0.00 | 0.00 | 70 | 1011.0 |
| 20260508130041 | 46 | 153 | 2.0 | 6.0 | 0.00 | 0.00 | 0.00 | 75 | 1011.3 |
| 20260508124539 | 45 | 221 | 2.0 | 4.0 | 0.00 | 0.00 | 0.00 | 76 | 1011.1 |
| 20260508123040 | 44 | 229 | 1.0 | 5.0 | 0.00 | 0.00 | 0.00 | 77 | 1011.3 |
| 20260508121541 | 43 | 261 | 0.0 | 4.0 | 0.00 | 0.00 | 0.00 | 79 | 1011.4 |
| 20260508120035 | 41 | 237 | 1.0 | 3.0 | 0.00 | 0.00 | 0.00 | 82 | 1011.3 |
| 20260508114548 | 39 | 226 | 1.0 | 3.0 | 0.00 | 0.00 | 0.00 | 85 | 1011.0 |
| 20260508113040 | 37 | 0 | 0.0 | 1.0 | 0.00 | 0.00 | 0.00 | 89 | 1011.2 |
| 20260508111543 | 34 | 0 | 0.0 | 1.0 | 0.00 | 0.00 | 0.00 | 90 | 1011.2 |
| 20260508110038 | 33 | 0 | 0.0 | 0.0 | 0.00 | 0.00 | 0.00 | 90 | 1010.8 |
| 20260508104536 | 33 | 0 | 0.0 | 0.0 | 0.00 | 0.00 | 0.00 | 90 | 1010.9 |
| 20260508103039 | 33 | 0 | 0.0 | 0.0 | 0.00 | 0.00 | 0.00 | 89 | 1011.0 |
| 20260508101535 | 33 | 0 | 0.0 | 0.0 | 0.00 | 0.00 | 0.00 | 89 | 1011.0 |
| 20260508100034 | 33 | 0 | 0.0 | 0.0 | 0.00 | 0.00 | 0.00 | 89 | 1010.9 |
| 20260508094602 | 34 | 0 | 0.0 | 1.0 | 0.00 | 0.00 | 0.00 | 88 | 1010.9 |
| 20260508093038 | 33 | 0 | 0.0 | 0.0 | 0.00 | 0.00 | 0.00 | 88 | 1011.0 |
| 20260508091540 | 33 | 0 | 0.0 | 0.0 | 0.00 | 0.00 | 0.00 | 88 | 1011.3 |
| 20260508090038 | 33 | 0 | 0.0 | 0.0 | 0.00 | 0.00 | 0.00 | 87 | 1011.1 |
| 20260508084534 | 33 | 0 | 0.0 | 0.0 | 0.00 | 0.00 | 0.00 | 87 | 1011.5 |
| 20260508083031 | 33 | 0 | 0.0 | 0.0 | 0.00 | 0.00 | 0.00 | 87 | 1011.2 |
| 20260508081559 | 33 | 0 | 0.0 | 0.0 | 0.00 | 0.00 | 0.00 | 87 | 1011.4 |
| 20260508080038 | 33 | 150 | 0.0 | 1.0 | 0.00 | 0.00 | 0.00 | 86 | 1011.6 |
| 20260508074536 | 34 | 0 | 0.0 | 1.0 | 0.00 | 0.00 | 0.00 | 86 | 1011.6 |
| 20260508073041 | 34 | 0 | 0.0 | 0.0 | 0.00 | 0.00 | 0.00 | 85 | 1011.7 |
| 20260508071542 | 34 | 0 | 0.0 | 2.0 | 0.00 | 0.00 | 0.00 | 85 | 1011.9 |
| 20260508070043 | 35 | 0 | 0.0 | 1.0 | 0.00 | 0.00 | 0.00 | 85 | 1011.9 |
| 20260508064539 | 34 | 0 | 0.0 | 1.0 | 0.00 | 0.00 | 0.00 | 84 | 1012.0 |
| 20260508063047 | 35 | 0 | 0.0 | 1.0 | 0.00 | 0.00 | 0.00 | 84 | 1012.0 |
| 20260508061535 | 35 | 0 | 0.0 | 0.0 | 0.00 | 0.00 | 0.00 | 84 | 1012.0 |
| 20260508060037 | 35 | 0 | 0.0 | 0.0 | 0.00 | 0.00 | 0.00 | 83 | 1012.3 |
| 20260508054532 | 36 | 0 | 0.0 | 0.0 | 0.00 | 0.00 | 0.00 | 82 | 1012.4 |
| 20260508053041 | 36 | 0 | 0.0 | 0.0 | 0.00 | 0.00 | 0.00 | 81 | 1012.5 |
| 20260508051539 | 36 | 0 | 0.0 | 0.0 | 0.00 | 0.00 | 0.00 | 81 | 1012.5 |
| 20260508050042 | 36 | 0 | 0.0 | 0.0 | 0.00 | 0.00 | 0.00 | 83 | 1012.5 |
| 20260508044534 | 36 | 0 | 0.0 | 0.0 | 0.00 | 0.00 | 0.00 | 81 | 1012.4 |
| 20260508043039 | 37 | 0 | 0.0 | 0.0 | 0.00 | 0.00 | 0.00 | 81 | 1012.2 |
| 20260508041537 | 37 | 0 | 0.0 | 0.0 | 0.00 | 0.00 | 0.00 | 80 | 1012.1 |
| 20260508040045 | 37 | 0 | 0.0 | 0.0 | 0.00 | 0.00 | 0.00 | 80 | 1011.9 |
| 20260508034535 | 37 | 0 | 0.0 | 1.0 | 0.00 | 0.00 | 0.00 | 78 | 1011.8 |
| 20260508033039 | 38 | 0 | 0.0 | 0.0 | 0.00 | 0.00 | 0.00 | 76 | 1011.6 |
| 20260508031610 | 39 | 0 | 0.0 | 0.0 | 0.00 | 0.00 | 0.00 | 75 | 1011.7 |
| 20260508030037 | 40 | 0 | 0.0 | 1.0 | 0.00 | 0.00 | 0.00 | 73 | 1011.6 |
| 20260508024546 | 40 | 0 | 0.0 | 1.0 | 0.00 | 0.00 | 0.00 | 72 | 1011.5 |
| 20260508023035 | 41 | 134 | 0.0 | 1.0 | 0.00 | 0.00 | 0.00 | 71 | 1011.2 |
| 20260508021540 | 41 | 135 | 0.0 | 2.0 | 0.00 | 0.00 | 0.00 | 69 | 1011.0 |
| 20260508020031 | 41 | 138 | 0.0 | 4.0 | 0.00 | 0.00 | 0.00 | 67 | 1011.1 |
| 20260508014542 | 42 | 0 | 0.0 | 2.0 | 0.00 | 0.00 | 0.00 | 67 | 1010.9 |
| 20260508013035 | 42 | 104 | 0.0 | 4.0 | 0.00 | 0.00 | 0.00 | 66 | 1010.7 |
| 20260508011536 | 42 | 104 | 2.0 | 5.0 | 0.00 | 0.00 | 0.00 | 64 | 1010.7 |
| 20260508010036 | 43 | 74 | 2.0 | 7.0 | 0.00 | 0.00 | 0.00 | 62 | 1010.6 |
| 20260508004538 | 44 | 0 | 1.0 | 9.0 | 0.00 | 0.00 | 0.00 | 61 | 1010.5 |
| 20260508003036 | 44 | 125 | 3.0 | 8.0 | 0.00 | 0.00 | 0.00 | 63 | 1010.3 |
| 20260508001536 | 46 | 99 | 3.0 | 8.0 | 0.00 | 0.00 | 0.00 | 62 | 1010.3 |
| 20260508000037 | 46 | 60 | 4.0 | 9.0 | 0.00 | 0.00 | 0.00 | 62 | 1010.2 |
| 20260507234538 | 46 | 101 | 3.0 | 10.0 | 0.00 | 0.00 | 0.00 | 65 | 1010.2 |
| 20260507233041 | 47 | 75 | 3.0 | 8.0 | 0.00 | 0.00 | 0.00 | 63 | 1010.2 |
| 20260507231538 | 47 | 68 | 3.0 | 12.0 | 0.00 | 0.00 | 0.00 | 62 | 1010.1 |
| 20260507230045 | 49 | 89 | 4.0 | 7.0 | 0.00 | 0.00 | 0.00 | 62 | 1010.3 |
| 20260507224543 | 49 | 86 | 5.0 | 10.0 | 0.00 | 0.00 | 0.00 | 61 | 1010.2 |
| 20260507223038 | 49 | 80 | 4.0 | 7.0 | 0.00 | 0.00 | 0.00 | 60 | 1010.4 |
| 20260507221540 | 49 | 53 | 4.0 | 8.0 | 0.00 | 0.00 | 0.00 | 56 | 1010.3 |
| 20260507220037 | 49 | 113 | 3.0 | 11.0 | 0.00 | 0.00 | 0.00 | 53 | 1010.3 |
| 20260507214549 | 49 | 70 | 4.0 | 12.0 | 0.00 | 0.00 | 0.00 | 51 | 1010.2 |
| 20260507213044 | 51 | 122 | 4.0 | 14.0 | 0.00 | 0.00 | 0.00 | 48 | 1010.3 |
| 20260507211538 | 50 | 169 | 4.0 | 16.0 | 0.00 | 0.00 | 0.00 | 52 | 1010.2 |
| 20260507210038 | 49 | 180 | 6.0 | 13.0 | 0.00 | 0.00 | 0.00 | 53 | 1010.1 |
| 20260507204538 | 49 | 149 | 5.0 | 14.0 | 0.00 | 0.00 | 0.00 | 53 | 1010.4 |
| 20260507203043 | 48 | 103 | 11.0 | 17.0 | 0.00 | 0.00 | 0.00 | 53 | 1010.7 |
| 20260507201549 | 49 | 150 | 5.0 | 10.0 | 0.00 | 0.00 | 0.00 | 58 | 1010.9 |
| 20260507200055 | 48 | 105 | 3.0 | 7.0 | 0.00 | 0.00 | 0.00 | 64 | 1011.3 |
| 20260507194535 | 47 | 93 | 0.0 | 7.0 | 0.00 | 0.00 | 0.00 | 67 | 1011.6 |
| 20260507193039 | 47 | 66 | 5.0 | 11.0 | 0.00 | 0.00 | 0.00 | 56 | 1011.6 |
| 20260507191535 | 48 | 83 | 5.0 | 14.0 | 0.00 | 0.00 | 0.00 | 53 | 1011.4 |